CAPE
539 390 34 485 27 0 0 19 0 0 0 0 6 9 3 21 8 0 57 82 155 329 916 950 1017 1153 1188 1175 1257 1336 1315 1361 1412 1629 1409 1182 886 795 960 1278 1432 1455 1109 1252 1208 998 1146 1371 1382
55 21 609 757 43 5 19 128 0 0 0 0 0 0 3 2 12 14 31 102 222 466 777 1218 1179 1192 1152 1370 1416 1773 1383 1496 1542 1563 1484 902 770 706 759 1181 1480 1503 1597 1460 1345 1158 1380 1597 1376
18 854 1175 209 7 32 42 137 65 145 13 32 0 0 0 0 2 15 41 217 374 525 749 1166 1437 1154 1332 1561 1720 1570 1742 1774 1594 1655 1536 1273 1049 1455 1397 1302 1405 1568 1480 1519 1793 1751 1729 1555 1648
785 1619 1040 0 76 101 0 23 0 30 41 71 0 0 0 0 8 34 111 286 366 721 1031 1587 1586 1353 1595 1586 1719 1664 1650 1653 1614 1673 1544 1745 1513 1560 1365 1661 1781 1772 1533 1713 1740 1724 1505 1565 1732
1708 1646 20 55 336 355 176 70 17 1 97 69 0 0 0 0 39 92 195 332 179 450 1129 1466 1389 1617 1613 1702 1677 1675 1566 1552 1616 1733 1677 1741 1630 1553 1681 1694 1603 1732 1305 1735 1677 1555 1292 1289 1555
1839 425 30 6 342 481 387 406 295 119 60 5 0 0 0 25 65 121 172 216 228 447 1067 1193 1403 1500 1762 1689 1730 1786 1546 1271 1330 1372 1574 1211 1446 1496 1446 1698 1692 1635 1553 1508 1661 1499 1401 1440 1321
1069 26 39 199 345 413 389 646 616 0 2 0 17 0 4 42 73 158 189 216 424 990 1094 1464 1491 1732 1796 1818 1746 1674 1533 1340 1062 1249 1465 1143 1220 1545 1007 1487 1599 1475 1510 1278 1484 1313 1320 948 870
1795 0 72 243 280 424 568 357 144 8 18 73 0 0 0 43 66 125 251 360 418 765 1185 1222 1696 1877 1811 1704 1666 1626 1769 1629 1379 1180 1200 769 1075 517 261 324 1339 1557 1473 1351 1242 1367 1451 1115 1027
2075 33 19 82 204 380 280 117 317 457 10 333 472 0 0 11 87 181 445 597 658 515 629 885 1149 1293 1136 1349 1528 1684 1684 1459 1746 1395 1149 1071 394 320 152 139 216 1394 1293 1384 1431 1349 1313 1334 1268
265 72 82 119 58 260 352 210 317 93 97 111 37 0 0 6 150 265 398 477 680 675 485 711 837 1009 928 1593 1409 1471 1343 1236 1239 967 795 713 339 203 40 133 35 495 1343 1335 1381 1466 1178 1082 941
20 90 183 253 89 348 346 233 415 120 150 111 0 0 0 30 130 212 340 526 504 673 635 610 572 782 666 1050 1076 1134 991 961 881 861 579 368 227 101 95 43 163 135 666 716 971 932 541 567 512
111 193 315 266 123 326 310 499 383 501 428 299 0 0 0 0 60 153 249 468 552 559 649 696 455 415 309 588 535 551 701 558 457 235 414 171 97 78 117 38 0 49 51 82 141 151 189 260 438
123 86 287 274 208 295 509 511 472 500 194 63 0 0 0 0 64 229 310 164 320 428 460 610 500 310 524 519 419 341 100 102 153 266 122 340 322 160 130 97 14 10 35 33 30 44 36 71 131
89 128 158 210 260 436 421 547 561 448 116 4 0 0 0 0 54 215 302 301 29 140 296 422 400 339 354 372 230 276 34 8 16 301 368 347 337 274 135 98 78 40 19 53 47 57 28 23 51
27 71 100 213 177 420 497 464 445 447 137 59 0 0 0 13 140 140 261 330 285 53 164 271 275 266 355 446 262 252 60 157 79 156 150 186 158 182 127 115 92 83 36 39 31 27 18 65 45
98 65 210 164 213 385 143 156 494 494 242 201 157 59 9 27 151 265 273 290 298 158 29 29 139 181 180 215 196 227 273 242 280 253 220 126 65 79 120 156 167 161 107 101 43 77 109 80 64
10 124 80 2 167 113 40 126 539 549 350 205 267 279 266 228 309 384 412 333 188 125 89 36 6 78 128 76 102 129 219 211 273 265 296 297 129 137 176 266 335 378 319 277 262 278 201 164 165
1 7 0 0 59 187 121 142 510 658 527 294 247 334 365 417 407 434 464 436 313 150 134 111 67 57 95 105 215 203 278 479 482 470 409 146 146 197 260 301 109 258 213 325 271 252 252 374 362
0 0 0 0 95 101 89 143 296 608 598 501 357 268 301 334 443 468 502 508 393 207 188 139 134 152 136 209 200 387 340 546 567 341 213 124 50 327 316 226 119 192 442 374 512 597 482 330 298
0 0 0 0 92 120 119 78 202 453 506 527 514 368 329 280 337 464 458 423 305 321 311 258 149 119 171 216 204 493 471 533 702 500 159 95 113 307 431 214 376 423 746 688 682 625 680 543 291
0 0 0 0 61 186 114 25 72 236 323 404 420 307 243 244 162 174 244 252 197 188 247 270 169 141 183 255 249 661 706 667 171 101 776 920 1026 795 662 583 871 949 784 828 573 513 576 506 364
0 0 0 0 0 0 18 0 0 46 118 195 240 321 300 207 182 157 157 139 177 66 27 101 144 204 257 283 232 506 471 96 20 114 680 889 858 812 1152 931 718 522 502 446 488 623 749 643 399
0 0 0 0 0 0 16 47 0 0 3 26 71 129 201 255 244 244 183 163 160 71 62 44 139 236 317 273 229 404 375 169 39 38 195 336 270 333 216 166 61 48 18 0 0 0 196 357 327
0 0 0 0 0 0 0 32 0 0 0 0 22 39 60 193 228 206 222 168 119 59 106 85 86 112 301 340 266 329 280 203 139 139 161 112 6 0 0 0 0 0 0 0 0 0 0 3 26
0 0 0 0 0 0 0 0 0 0 0 0 0 3 5 23 207 231 274 265 147 120 148 134 206 276 352 380 337 243 8 3 167 89 193 68 0 0 0 0 0 0 0 0 0 0 0 0 0
0 0 0 0 0 0 0 0 0 0 0 0 0 2 0 0 126 298 330 304 161 152 159 186 331 535 712 578 505 342 92 178 237 222 204 10 0 0 0 0 0 0 0 0 0 0 0 0 0
0 0 0 0 0 0 0 0 0 0 0 0 0 4 12 3 38 65 303 348 192 159 209 196 381 653 834 889 753 577 310 297 153 63 0 0 0 0 0 0 0 0 0 0 0 0 0 0 0
0 0 0 0 0 0 0 0 0 0 0 0 0 0 0 7 99 124 267 346 247 121 140 241 230 348 447 500 605 402 220 100 23 0 0 0 0 0 0 0 0 0 0 0 0 0 0 0 0
0 0 0 0 0 0 0 0 0 0 0 0 0 0 2 7 131 206 317 334 279 147 228 119 114 206 426 548 239 106 18 0 0 0 0 0 0 0 0 0 0 0 0 0 0 0 0 0 0
0 0 0 0 0 0 0 0 0 0 0 0 0 0 15 30 38 100 207 297 309 481 500 292 342 509 522 257 87 24 0 0 0 0 0 0 0 0 0 0 0 0 0 0 0 0 0 0 0
CIN
-255 -263 -453 -206 -108 0 -3 -26 -1 0 0 0 -47 -37 -43 -76 -59 0 -173 -105 -59 -31 -2 -1 -1 0 0 0 0 0 0 -1 0 0 0 0 -5 -16 -11 -1 -1 -2 -6 -8 -7 -16 -8 -3 -5
-289 -244 -197 -158 -133 -18 -33 -26 0 0 0 0 0 0 -78 -100 -190 -190 -149 -90 -44 -40 -12 -1 -1 0 0 -1 0 0 0 0 -1 0 0 -6 -6 -12 -18 -5 0 0 0 -3 -1 -2 0 0 -1
-373 -209 -113 -82 -40 -88 -33 -45 -91 -70 -146 -92 0 0 0 0 -50 -226 -208 -85 -54 -35 -25 -8 0 -4 0 0 0 0 0 0 0 0 0 -1 -2 0 -2 -2 0 0 0 -1 0 0 0 0 0
-279 -139 -149 0 -27 -33 -1 -108 -3 -146 -115 -77 -3 0 0 -5 -252 -204 -182 -105 -79 -42 -24 0 0 -1 0 0 0 0 0 0 0 0 0 0 0 0 0 0 -1 0 -1 0 0 0 0 0 0
-165 -126 -148 -49 -27 -44 -68 -103 -25 -9 -112 -113 0 0 0 -24 -215 -203 -159 -110 -130 -86 -26 -8 -6 -2 0 0 0 0 0 0 0 0 0 0 0 0 0 0 0 0 -1 0 0 0 0 0 0
-73 -164 -119 -20 -25 -44 -66 -72 -92 -112 -156 -112 0 0 0 -243 -200 -178 -151 -130 -120 -93 -32 -20 -10 -10 0 0 0 0 0 -5 -4 -2 -2 -7 -1 -1 -1 0 0 0 0 0 0 0 0 0 -2
-59 -170 -117 -56 -41 -29 -52 -70 -61 0 -39 0 -192 0 -157 -234 -216 -167 -139 -120 -81 -33 -30 -16 -16 0 0 0 0 0 0 -6 -23 -13 -1 -3 -7 -2 -7 -1 -1 0 0 0 0 0 0 -7 -21
-118 0 -86 -71 -43 -24 -43 -71 -102 -40 -89 -215 0 0 0 -306 -268 -193 -128 -92 -71 -31 -15 -18 -4 -1 -4 -4 -1 0 0 0 -3 -12 -10 -20 -7 -11 -17 -9 -1 0 0 0 0 0 0 -3 -11
-135 -147 -84 -61 -60 -55 -92 -92 -108 -128 -64 -143 -130 0 0 -240 -261 -181 -104 -73 -61 -93 -80 -56 -31 -20 -31 -20 -3 0 0 0 0 -3 -11 -13 -44 -35 -29 -24 -20 0 -2 -1 0 -1 -2 0 0
-133 -98 -83 -83 -106 -92 -121 -125 -96 -167 -145 -158 -207 0 0 -158 -219 -167 -140 -123 -89 -85 -114 -84 -57 -42 -49 -6 -14 -9 -9 -14 -20 -27 -33 -36 -48 -53 -59 -34 -24 -10 0 0 0 0 -4 -3 -9
-130 -94 -99 -96 -117 -117 -141 -149 -94 -147 -137 -149 0 0 0 -293 -224 -175 -143 -109 -107 -96 -105 -115 -109 -74 -74 -45 -42 -35 -40 -38 -38 -28 -38 -47 -50 -60 -55 -67 -39 -37 -11 -11 -6 -10 -18 -17 -26
-71 -99 -78 -117 -171 -155 -132 -137 -128 -124 -119 -188 0 0 0 0 -243 -186 -151 -116 -118 -115 -94 -85 -111 -110 -122 -85 -84 -73 -58 -65 -66 -64 -54 -58 -61 -53 -50 -64 0 -53 -55 -39 -37 -49 -36 -26 -24
-90 -119 -107 -130 -148 -162 -147 -121 -135 -160 -263 -377 0 0 0 0 -227 -174 -149 -154 -126 -118 -124 -110 -115 -127 -97 -84 -88 -91 -111 -96 -78 -67 -77 -62 -55 -45 -51 -60 -90 -79 -80 -60 -58 -57 -60 -51 -47
-158 -133 -129 -157 -155 -161 -130 -159 -148 -224 -343 -78 0 0 0 0 -225 -170 -143 -145 -186 -131 -118 -101 -115 -126 -120 -104 -99 -81 -109 -104 -107 -71 -57 -57 -50 -45 -68 -47 -70 -94 -101 -78 -63 -65 -89 -100 -59
-224 -110 -134 -139 -172 -166 -160 -165 -146 -229 -358 -329 0 0 0 -297 -232 -204 -174 -160 -157 -186 -146 -117 -113 -125 -114 -95 -78 -84 -87 -79 -93 -78 -79 -61 -49 -37 -56 -64 -75 -78 -119 -99 -113 -95 -113 -79 -86
-133 -142 -49 -129 -151 -198 -228 -97 -194 -277 -309 -257 -237 -239 -127 -259 -206 -192 -198 -184 -177 -181 -184 -183 -149 -140 -141 -115 -94 -75 -65 -73 -78 -86 -76 -83 -61 -75 -95 -94 -73 -78 -110 -122 -141 -89 -87 -84 -91
-133 -55 -108 -195 -178 -170 -216 -128 -227 -311 -306 -282 -233 -210 -210 -204 -200 -163 -163 -178 -190 -197 -181 -190 -100 -142 -142 -159 -142 -126 -93 -84 -78 -84 -76 -69 -77 -102 -106 -76 -54 -49 -59 -88 -73 -62 -68 -80 -76
-68 -70 0 0 -182 -176 -141 -140 -255 -312 -315 -262 -256 -210 -185 -198 -174 -154 -166 -165 -175 -195 -188 -167 -171 -145 -161 -164 -145 -141 -115 -85 -74 -79 -80 -95 -88 -84 -95 -79 -149 -105 -113 -70 -73 -74 -86 -50 -47
0 0 0 0 -173 -149 -149 -155 -203 -289 -336 -272 -260 -240 -191 -178 -150 -169 -157 -167 -168 -160 -162 -171 -166 -155 -150 -138 -139 -116 -112 -81 -73 -96 -114 -120 -147 -63 -76 -113 -177 -150 -74 -52 -37 -26 -34 -54 -69
0 0 0 0 -160 -125 -125 -132 -207 -300 -274 -297 -244 -230 -188 -174 -188 -172 -160 -166 -183 -167 -171 -184 -164 -175 -134 -115 -132 -104 -101 -76 -57 -81 -127 -155 -127 -78 -70 -128 -94 -93 -49 -39 -31 -36 -27 -31 -61
0 0 0 0 -146 -188 -154 -96 -160 -276 -410 -373 -339 -283 -255 -177 -183 -227 -196 -193 -214 -216 -219 -206 -200 -184 -145 -122 -132 -83 -76 -46 -69 -78 -57 -53 -60 -62 -74 -77 -37 -22 -46 -34 -54 -57 -36 -24 -33
0 0 0 0 0 0 -249 -36 0 -225 -291 -400 -361 -318 -250 -242 -242 -266 -247 -249 -224 -254 -327 -291 -270 -225 -172 -135 -139 -75 -51 -65 -95 -66 -81 -69 -66 -60 -44 -54 -66 -67 -75 -78 -62 -48 -28 -15 -16
0 0 0 0 0 0 -222 -155 -1 0 -179 -242 -336 -393 -339 -250 -238 -230 -247 -210 -241 -338 -310 -353 -313 -250 -193 -142 -137 -91 -70 -90 -126 -144 -104 -129 -106 -113 -147 -148 -168 -159 -175 0 0 0 -79 -36 -14
0 0 0 0 0 0 0 -177 0 0 0 0 -261 -352 -379 -293 -268 -271 -270 -302 -297 -407 -361 -323 -345 -318 -228 -166 -155 -127 -93 -109 -102 -117 -119 -150 -156 0 0 0 0 0 0 0 0 0 0 -41 -110
0 0 0 0 0 0 0 0 0 0 0 0 0 -309 -137 -371 -299 -307 -299 -312 -387 -369 -402 -341 -298 -269 -233 -186 -176 -146 -101 -127 -123 -144 -132 -194 0 0 0 0 0 0 0 0 0 0 0 0 0
0 0 0 0 0 0 0 0 0 0 0 0 0 -368 0 0 -351 -340 -315 -339 -387 -376 -423 -372 -298 -237 -208 -192 -169 -190 -237 -160 -132 -139 -153 -305 0 0 0 0 0 0 0 0 0 0 0 0 0
0 0 0 0 0 0 0 0 0 0 0 0 0 -389 -349 -420 -427 -402 -387 -429 -438 -407 -419 -367 -307 -262 -194 -156 -155 -164 -174 -144 -184 -286 -26 0 0 0 0 0 0 0 0 0 0 0 0 0 0
0 0 0 0 0 0 0 0 0 0 0 0 -11 0 0 -465 -464 -474 -460 -476 -509 -499 -480 -439 -410 -349 -322 -244 -184 -202 -255 -331 -372 0 0 0 0 0 0 0 0 0 0 0 0 0 0 0 0
0 0 0 0 0 0 0 0 0 0 0 0 0 -61 -217 -481 -450 -472 -494 -513 -533 -556 -506 -508 -492 -418 -345 -250 -326 -369 -466 0 0 0 0 0 0 0 0 0 0 0 0 0 0 0 0 0 0
0 0 0 0 0 0 0 0 0 0 0 0 0 0 -358 -465 -529 -492 -526 -547 -571 -519 -478 -469 -413 -359 -312 -360 -421 -509 0 0 0 0 0 0 0 0 0 0 0 0 0 0 0 0 0 0 0
Wind_Speed
26 24 22 19 19 25 23 24 22 26 25 19 28 20 20 15 15 19 30 21 30 29 26 29 25 15 2 1 13 29 29 28 25 25 24 24 24 24 24 23 22 22 21 21 21 20 19 20 20
26 24 18 19 25 25 20 21 27 24 24 28 25 24 13 17 18 31 30 32 33 29 28 28 26 24 5 11 26 22 26 24 25 25 24 24 23 23 23 22 21 22 21 21 21 20 21 20 21
24 19 18 20 24 24 22 25 25 24 29 27 20 15 16 18 21 37 28 35 33 28 29 28 27 25 24 23 24 25 18 25 24 23 23 23 23 22 22 21 22 22 22 21 21 20 20 19 20
20 18 19 28 32 25 23 27 29 30 28 20 26 11 16 18 29 30 36 34 30 30 29 26 26 24 22 22 23 25 25 14 19 23 22 23 22 22 22 21 21 21 22 20 20 19 19 20 20
16 18 23 26 26 23 22 27 28 28 24 24 21 17 17 26 26 28 31 31 23 3 24 28 27 27 26 25 24 24 21 19 22 22 21 21 21 21 21 21 20 21 21 20 19 19 19 20 20
20 19 25 28 27 24 23 23 23 22 24 24 23 14 22 27 27 28 25 24 21 19 26 27 26 25 25 24 23 22 21 21 21 20 19 19 19 19 19 19 19 20 21 19 19 17 19 19 20
22 25 26 27 28 23 22 23 20 24 25 21 24 25 24 30 27 22 23 14 17 21 21 23 19 21 22 20 20 18 19 19 19 18 18 17 17 18 16 17 18 17 18 18 16 17 16 18 18
20 24 26 24 26 25 23 21 27 24 21 25 25 23 28 31 28 23 21 15 16 16 14 24 11 13 13 12 15 14 17 17 17 17 17 17 17 16 14 14 16 16 16 16 15 14 14 15 18
18 24 23 24 25 26 25 25 20 23 26 21 20 21 28 30 28 24 23 22 21 23 22 19 18 14 9 8 10 13 15 15 15 16 18 18 17 15 15 14 14 15 15 14 14 13 13 15 16
21 24 22 21 24 26 26 25 24 24 23 20 21 26 28 29 28 27 26 24 24 24 24 23 20 5 12 11 10 10 12 12 12 17 18 18 17 16 14 13 14 17 15 15 14 13 12 13 9
19 22 21 22 24 26 26 23 20 25 20 18 21 28 29 28 27 26 25 22 23 22 22 23 22 21 22 21 8 9 10 10 12 18 18 17 13 12 13 13 14 14 12 12 13 9 11 11 11
21 17 17 23 26 26 25 24 22 16 15 19 25 29 28 27 26 24 25 23 22 24 24 25 25 24 22 19 17 15 10 12 13 14 18 12 11 10 11 12 13 12 11 11 10 10 12 16 21
21 18 17 23 24 25 25 22 22 18 22 26 28 28 27 25 25 24 22 21 23 25 24 25 25 24 23 21 20 19 14 15 17 17 14 11 9 9 8 8 9 11 10 11 10 12 13 14 19
19 23 23 22 22 22 23 23 20 20 23 25 26 25 24 25 24 22 24 24 23 25 25 25 24 24 24 22 22 21 19 20 19 17 13 9 8 8 8 8 8 8 8 9 11 9 11 16 19
21 20 19 21 19 20 24 20 17 20 22 23 22 22 23 24 23 23 23 24 24 24 25 24 23 22 22 22 21 20 18 20 19 17 13 10 10 8 8 8 11 8 9 9 13 15 14 17 16
17 18 16 14 16 15 13 15 17 19 21 20 19 19 20 22 22 22 21 21 23 22 23 22 22 22 22 20 19 20 19 21 20 13 12 13 13 11 11 12 16 17 8 11 12 11 12 13 13
14 14 12 11 14 14 12 11 13 17 17 17 17 18 19 20 20 19 19 21 20 22 21 21 21 21 19 15 17 16 16 10 14 13 12 15 14 15 14 14 13 16 15 16 10 10 10 10 12
13 14 16 13 12 13 10 7 13 16 15 16 15 15 17 18 19 18 16 19 18 18 17 17 17 17 13 9 9 9 10 7 11 13 14 14 13 13 14 14 13 16 14 12 11 11 11 10 8
13 14 14 14 12 11 9 10 10 13 13 12 13 13 17 18 18 16 15 17 18 16 19 16 13 11 9 9 8 9 8 10 13 14 12 13 14 13 17 17 16 15 14 12 12 11 9 10 13
13 15 19 16 13 11 11 5 7 8 11 13 13 14 22 18 19 19 20 20 20 21 24 23 22 22 22 18 16 10 9 8 11 15 14 13 12 11 12 18 16 15 15 14 10 9 10 12 14
13 13 17 23 19 15 13 4 6 8 10 13 16 17 23 21 21 21 22 26 26 24 23 23 22 22 22 22 19 16 16 15 8 4 8 5 11 12 19 19 18 16 12 9 14 14 14 9 14
19 14 17 20 19 4 14 7 7 8 8 13 19 21 23 23 22 23 23 25 26 25 23 21 21 21 22 22 20 17 15 15 15 17 20 18 16 16 17 17 14 13 16 17 17 18 17 14 8
22 19 23 22 19 14 11 6 19 5 10 11 17 21 21 23 24 24 25 25 24 22 22 20 19 19 20 22 20 18 14 14 15 15 15 16 14 14 16 17 18 18 20 20 20 20 19 15 12
23 21 22 21 19 18 5 4 15 19 12 13 12 17 19 22 23 25 23 21 22 18 19 19 18 18 19 20 20 17 14 13 14 14 13 11 12 15 17 17 19 19 20 22 21 20 19 17 15
20 23 25 23 19 21 21 3 9 20 19 19 11 15 19 22 21 21 23 21 20 18 19 20 19 18 18 20 19 17 14 13 12 12 11 10 10 13 15 17 19 20 22 22 21 21 22 23 20
20 18 20 24 22 24 20 7 11 10 25 26 15 13 14 15 21 22 22 21 19 16 17 18 18 18 16 17 17 13 13 10 9 10 10 10 11 13 14 16 19 21 21 22 21 21 22 21 21
20 21 17 22 23 25 22 21 27 27 17 21 14 8 10 15 18 21 18 18 15 15 13 12 14 14 13 13 13 10 8 7 7 9 10 10 12 13 14 17 19 21 21 20 20 19 19 20 21
22 17 22 22 26 28 24 22 14 14 26 17 6 4 7 14 15 17 16 15 12 11 11 10 11 10 10 9 9 7 7 7 8 8 9 10 12 13 15 17 19 20 20 19 18 18 18 19 21
25 24 24 22 23 28 31 29 14 5 17 29 19 4 5 12 13 11 14 15 12 11 12 8 6 5 7 8 8 8 8 8 9 9 10 10 12 13 15 17 17 18 18 18 18 18 18 20 22
26 26 23 25 26 26 28 33 24 20 25 28 27 18 1 4 10 11 12 12 12 13 11 10 8 6 7 6 8 9 9 9 9 8 9 10 12 14 16 16 15 15 16 17 17 18 19 20 22
Wind_Direction
108 111 113 112 104 89 91 87 96 75 93 143 127 173 176 189 189 188 166 189 164 163 165 146 91 63 211 21 160 124 121 104 88 96 102 105 109 112 120 119 123 133 130 114 105 107 90 96 99
106 110 115 107 89 88 95 97 82 101 116 103 119 142 206 188 165 159 166 158 156 164 162 154 99 88 45 192 150 161 118 143 128 127 133 118 115 125 129 127 129 137 130 104 93 89 93 88 94
110 113 105 102 89 91 89 80 88 104 112 121 153 188 185 196 172 147 165 145 140 166 156 156 154 154 153 160 150 98 159 127 139 134 142 121 124 133 126 125 128 123 121 98 98 92 90 88 96
111 109 105 82 72 94 94 75 84 100 121 141 113 208 183 190 168 163 143 134 123 138 154 163 159 164 170 164 156 139 120 198 171 136 138 130 125 133 137 127 123 128 128 100 96 90 86 96 104
120 104 94 90 88 101 103 90 94 103 121 123 148 183 184 166 153 116 126 132 108 203 182 146 134 136 137 142 139 125 86 72 127 125 119 140 122 140 144 133 130 138 140 104 99 92 95 107 114
96 100 89 85 86 99 102 109 107 108 119 123 113 192 171 152 116 123 118 114 106 102 128 137 138 134 134 129 123 107 100 101 104 110 125 125 104 126 136 130 126 131 137 114 107 90 101 106 118
86 85 86 86 84 103 106 106 111 109 116 129 121 144 171 157 127 112 115 93 101 113 112 123 110 118 124 115 109 91 94 105 111 108 114 130 104 124 120 121 130 126 127 113 97 95 90 110 122
100 87 88 92 89 91 104 109 95 112 122 122 124 143 133 149 132 118 114 97 103 103 97 196 85 86 80 72 89 76 96 98 101 110 128 141 141 144 65 122 138 133 123 121 100 86 84 95 136
114 84 92 94 91 90 108 101 115 106 115 127 131 127 135 130 129 122 123 131 131 140 143 129 237 258 298 355 47 75 103 96 95 123 158 168 160 159 112 123 140 140 127 117 115 111 106 134 142
93 86 95 104 94 96 107 104 106 100 105 121 110 108 117 128 134 138 141 144 147 151 157 159 146 238 280 300 68 61 84 64 81 159 198 201 157 159 162 132 133 153 142 141 140 135 130 140 91
120 100 107 100 93 96 101 109 115 98 104 121 118 121 127 132 140 143 149 144 147 151 153 159 158 155 162 165 63 63 68 60 92 238 246 226 102 83 101 126 124 139 124 138 151 115 138 141 332
104 132 124 105 84 90 97 98 109 116 121 110 115 124 128 137 142 145 153 153 148 156 168 174 174 170 168 156 148 146 99 108 118 137 214 112 117 100 115 115 124 104 105 140 137 138 156 187 221
98 116 138 101 82 85 88 94 97 106 95 91 108 121 133 139 149 152 148 151 162 168 165 172 172 174 176 170 173 172 143 161 181 189 165 128 117 118 89 67 71 135 87 143 143 166 180 197 198
118 89 82 82 78 95 81 88 94 101 100 98 110 124 133 143 146 147 158 158 155 169 172 172 173 176 179 177 178 181 187 212 200 190 172 151 136 120 113 44 67 114 89 120 156 138 176 208 199
101 77 44 54 96 92 78 86 87 103 110 109 117 126 134 144 146 150 149 158 158 162 165 166 170 173 175 184 183 180 177 220 202 194 181 157 156 122 96 85 158 105 80 128 176 196 190 209 197
78 87 72 89 110 117 139 93 100 110 118 117 117 126 139 147 150 153 149 151 160 157 160 166 166 167 171 170 179 181 178 209 205 141 110 81 75 96 114 128 184 317 85 152 172 168 184 193 197
19 51 75 78 135 110 119 100 110 122 124 124 126 135 147 157 160 157 157 161 157 161 155 161 162 166 163 148 159 152 148 114 299 353 60 29 66 89 105 125 159 317 196 190 124 162 169 177 193
33 32 26 60 73 147 125 121 113 141 136 137 135 139 149 160 166 161 157 166 157 157 151 150 151 154 130 82 49 56 99 48 349 353 359 8 29 61 117 127 24 351 21 153 122 143 113 125 161
0 3 18 39 60 62 141 171 128 146 146 147 151 147 163 168 170 164 158 162 163 158 159 149 137 134 107 81 40 24 21 343 334 341 8 4 2 43 181 208 211 205 189 148 154 156 134 86 55
337 342 341 12 38 44 39 149 149 143 169 170 164 171 180 175 168 170 174 169 165 168 174 172 168 162 158 142 139 103 84 24 352 334 340 337 8 70 342 222 213 194 197 190 160 101 79 56 42
315 332 340 328 346 360 13 72 56 165 170 177 184 182 186 180 175 171 174 182 179 171 165 166 162 161 163 161 159 156 129 113 66 81 249 233 85 83 218 230 223 212 177 80 39 33 29 53 28
293 321 331 331 338 59 0 214 63 180 176 187 197 191 190 184 179 179 175 177 177 174 162 152 149 155 160 162 163 156 146 136 155 145 174 191 224 213 210 225 307 20 359 4 7 4 8 16 37
285 305 308 317 330 339 352 40 237 128 204 194 198 194 190 187 185 181 180 178 172 162 162 156 147 151 156 162 165 160 144 137 133 118 129 240 325 354 317 332 334 335 341 354 355 353 357 10 20
285 296 307 317 323 318 200 145 222 237 209 225 192 195 186 184 183 183 180 173 172 155 158 159 156 158 157 160 165 164 146 130 119 120 106 90 20 343 335 340 340 341 346 349 352 356 359 5 11
282 286 292 300 308 309 315 344 204 241 233 231 213 196 179 179 178 174 175 171 165 160 158 158 157 156 156 160 161 165 164 144 135 119 99 82 46 11 353 351 349 347 346 350 359 357 353 351 357
274 275 282 289 298 305 312 317 216 214 256 260 218 181 169 169 175 175 175 175 172 165 160 154 154 153 148 154 159 150 154 130 108 95 84 66 33 18 10 360 354 348 347 350 354 356 353 358 2
273 271 285 290 298 297 304 314 257 286 228 230 341 11 143 162 170 174 171 172 171 167 162 150 145 140 139 144 144 130 113 86 65 63 54 39 29 25 15 1 354 352 353 356 360 5 10 11 9
274 274 275 283 286 287 297 307 324 333 252 221 92 95 108 145 152 159 164 167 168 170 161 154 145 133 125 119 115 91 57 36 42 44 39 31 25 22 20 7 356 356 359 7 12 14 18 16 12
272 272 275 281 283 288 288 292 323 228 259 259 217 139 108 143 148 149 153 157 160 165 163 152 137 107 104 99 91 84 62 55 48 40 35 32 26 16 10 8 5 3 6 13 19 21 19 13 11
271 269 269 271 278 285 289 286 303 314 296 284 243 191 341 98 150 153 155 156 157 160 162 157 142 118 99 78 78 71 66 71 58 46 41 33 24 11 7 12 17 16 19 21 20 20 18 15 13